Погода в Ильиной Горе

Россия / Владимирская область     56°12′33″N   42°24′13″E
темп.,
°C
ветер,
м/с
пор.,
м/с
влажн.,
%
обл.,
%
осадки,
мм/ч
давл.,
гПа
погр.,
м
7 марта, вс
вс700:00−14зюз23950 0.0 101223
03:00−14ююз33940 0.0 101151
06:00−13ююз489561 0.0 1008192
09:00−9ююз7148580 0.0 1004569
12:00−6ююз81391100 0.5 9991065
15:00−5ююз71293100 1.8 9951025
18:00−4ююз61294100 1.1 993737
21:00−4зюз2597100 2.9 991268
8 марта, пн
пн800:00−7ссз4990100 1.3 990292
03:00−10зсз3681100 1.3 992105
06:00−11з379497 0.0 994171
09:00−7зюз479081 0.2 996407
12:00−6зюз348692 0.1 997709
15:00−5зюз238496 0.3 998582
18:00−9сз338971 0.3 100050
21:00−12сз379552 0.3 1003146
9 марта, вт
вт900:00−11сз489596 0.1 1005279
03:00−14сз369795 0.1 1008152
06:00−17сз359782 0.0 1010123
09:00−16ссз369484 0.1 1012279
12:00−13ссз3589100 0.0 1013497
15:00−12сз4587100 0.1 1014679
18:00−15сз4893100 0.1 1015304
21:00−18ссз3897100 0.1 1018206
10 марта, ср
ср1000:00−20ссз3698100 0.1 1019194
03:00−24ссз369891 0.1 1021130
06:00−27ссз369863 0.0 1022109
09:00−24ссз369455 0.0 1024259
12:00−19ссз358558 0.0 1025516
15:00−16сз368156 0.0 1025669
18:00−19зсз339122 0.0 102536
21:00−21зсз339412 0.0 102666
11 марта, чт
чт1100:00−21зсз389685 0.0 1026183
03:00−22зсз379656 0.0 1027157
06:00−22зсз37940 0.0 1027138
09:00−18зсз47880 0.0 1027244
12:00−12з36820 0.0 1027346
15:00−9з35740 0.0 1026548
18:00−13ююз23860 0.0 102623
21:00−15ююз48910 0.0 1026155